Year,Month,Day,Hour,Minute,Value (Times are PST for windspeed in km/hr)
2022,05,18,00,00,0.60
2022,05,18,00,01,0.40
2022,05,18,00,02,0.40
2022,05,18,00,03,0.90
2022,05,18,00,04,0.70
2022,05,18,00,05,0.90
2022,05,18,00,06,1.00
2022,05,18,00,07,1.40
2022,05,18,00,08,0.40
2022,05,18,00,09,0.80
2022,05,18,00,10,0.60
2022,05,18,00,11,0.20
2022,05,18,00,12,0.60
2022,05,18,00,13,0.80
2022,05,18,00,14,0.60
2022,05,18,00,15,0.90
2022,05,18,00,16,1.20
2022,05,18,00,17,1.80
2022,05,18,00,18,0.60
2022,05,18,00,19,0.80
2022,05,18,00,20,1.20
2022,05,18,00,21,2.80
2022,05,18,00,22,1.90
2022,05,18,00,23,1.50
2022,05,18,00,24,1.40
2022,05,18,00,25,1.40
2022,05,18,00,26,1.20
2022,05,18,00,27,1.80
2022,05,18,00,28,1.40
2022,05,18,00,29,0.50
2022,05,18,00,30,0.00
2022,05,18,00,31,0.00
2022,05,18,00,32,0.00
2022,05,18,00,33,0.00
2022,05,18,00,34,0.90
2022,05,18,00,35,3.00
2022,05,18,00,36,3.80
2022,05,18,00,37,2.90
2022,05,18,00,38,3.40
2022,05,18,00,39,4.20
2022,05,18,00,40,3.50
2022,05,18,00,41,3.90
2022,05,18,00,42,3.20
2022,05,18,00,43,4.50
2022,05,18,00,44,1.20
2022,05,18,00,45,2.00
2022,05,18,00,46,1.50
2022,05,18,00,47,1.60
2022,05,18,00,48,1.80
2022,05,18,00,49,1.00
2022,05,18,00,50,1.10
2022,05,18,00,51,1.50
2022,05,18,00,52,1.40
2022,05,18,00,53,1.50
2022,05,18,00,54,0.50
2022,05,18,00,55,3.10
2022,05,18,00,56,1.20
2022,05,18,00,57,1.00
2022,05,18,00,58,1.90
2022,05,18,00,59,0.50
2022,05,18,01,00,1.80
2022,05,18,01,01,0.20
2022,05,18,01,02,1.50
2022,05,18,01,03,1.70
2022,05,18,01,04,1.00
2022,05,18,01,05,0.60
2022,05,18,01,06,0.20
2022,05,18,01,07,0.50
2022,05,18,01,08,0.30
2022,05,18,01,09,0.10
2022,05,18,01,10,0.90
2022,05,18,01,11,2.60
2022,05,18,01,12,3.90
2022,05,18,01,13,3.00
2022,05,18,01,14,3.90
2022,05,18,01,15,3.80
2022,05,18,01,16,2.10
2022,05,18,01,17,2.90
2022,05,18,01,18,3.00
2022,05,18,01,19,2.30
2022,05,18,01,20,1.50
2022,05,18,01,21,1.30
2022,05,18,01,22,2.30
2022,05,18,01,23,2.10
2022,05,18,01,24,0.90
2022,05,18,01,25,0.30
2022,05,18,01,26,0.00
2022,05,18,01,27,0.00
2022,05,18,01,28,0.00
2022,05,18,01,29,0.80
2022,05,18,01,30,2.00
2022,05,18,01,31,2.00
2022,05,18,01,32,0.80
2022,05,18,01,33,0.20
2022,05,18,01,34,1.20
2022,05,18,01,35,3.00
2022,05,18,01,36,2.10
2022,05,18,01,37,3.30
2022,05,18,01,38,1.80
2022,05,18,01,39,0.80
2022,05,18,01,40,0.70
2022,05,18,01,41,0.80
2022,05,18,01,42,0.40
2022,05,18,01,43,0.30
2022,05,18,01,44,1.50
2022,05,18,01,45,1.80
2022,05,18,01,46,1.10
2022,05,18,01,47,0.80
2022,05,18,01,48,0.60
2022,05,18,01,49,1.50
2022,05,18,01,50,0.40
2022,05,18,01,51,0.90
2022,05,18,01,52,0.40
2022,05,18,01,53,2.40
2022,05,18,01,54,1.50
2022,05,18,01,55,2.00
2022,05,18,01,56,1.50
2022,05,18,01,57,1.00
2022,05,18,01,58,3.00
2022,05,18,01,59,0.80
2022,05,18,02,00,0.20
2022,05,18,02,01,1.10
2022,05,18,02,02,0.30
2022,05,18,02,03,0.60
2022,05,18,02,04,0.00
2022,05,18,02,05,2.90
2022,05,18,02,06,4.10
2022,05,18,02,07,3.50
2022,05,18,02,08,1.80
2022,05,18,02,09,3.10
2022,05,18,02,10,2.50
2022,05,18,02,11,1.90
2022,05,18,02,12,2.50
2022,05,18,02,13,1.40
2022,05,18,02,14,2.60
2022,05,18,02,15,1.70
2022,05,18,02,16,5.50
2022,05,18,02,17,3.30
2022,05,18,02,18,4.00
2022,05,18,02,19,4.10
2022,05,18,02,20,4.90
2022,05,18,02,21,5.90
2022,05,18,02,22,2.90
2022,05,18,02,23,2.60
2022,05,18,02,24,3.50
2022,05,18,02,25,2.90
2022,05,18,02,26,2.60
2022,05,18,02,27,3.60
2022,05,18,02,28,5.10
2022,05,18,02,29,3.70
2022,05,18,02,30,6.40
2022,05,18,02,31,2.50
2022,05,18,02,32,3.40
2022,05,18,02,33,3.10
2022,05,18,02,34,1.00
2022,05,18,02,35,1.20
2022,05,18,02,36,2.40
2022,05,18,02,37,6.10
2022,05,18,02,38,3.00
2022,05,18,02,39,2.20
2022,05,18,02,40,2.70
2022,05,18,02,41,2.60
2022,05,18,02,42,3.50
2022,05,18,02,43,3.80
2022,05,18,02,44,5.10
2022,05,18,02,45,2.30
2022,05,18,02,46,3.10
2022,05,18,02,47,2.80
2022,05,18,02,48,3.70
2022,05,18,02,49,3.00
2022,05,18,02,50,1.90
2022,05,18,02,51,1.90
2022,05,18,02,52,2.60
2022,05,18,02,53,2.20
2022,05,18,02,54,4.90
2022,05,18,02,55,3.80
2022,05,18,02,56,3.60
2022,05,18,02,57,2.50
2022,05,18,02,58,3.70
2022,05,18,02,59,3.90
2022,05,18,03,00,1.90
2022,05,18,03,01,1.90
2022,05,18,03,02,2.70
2022,05,18,03,03,4.90
2022,05,18,03,04,3.20
2022,05,18,03,05,4.60
2022,05,18,03,06,1.60
2022,05,18,03,07,3.50
2022,05,18,03,08,3.30
2022,05,18,03,09,0.70
2022,05,18,03,10,0.50
2022,05,18,03,11,0.40
2022,05,18,03,12,0.90
2022,05,18,03,13,1.40
2022,05,18,03,14,1.90
2022,05,18,03,15,1.70
2022,05,18,03,16,1.40
2022,05,18,03,17,1.00
2022,05,18,03,18,0.70
2022,05,18,03,19,1.50
2022,05,18,03,20,0.10
2022,05,18,03,21,1.10
2022,05,18,03,22,1.70
2022,05,18,03,23,0.80
2022,05,18,03,24,1.00
2022,05,18,03,25,2.30
2022,05,18,03,26,2.80
2022,05,18,03,27,7.80
2022,05,18,03,28,2.30
2022,05,18,03,29,2.20
2022,05,18,03,30,3.50
2022,05,18,03,31,2.10
2022,05,18,03,32,1.00
2022,05,18,03,33,0.50
2022,05,18,03,34,0.60
2022,05,18,03,35,1.60
2022,05,18,03,36,1.20
2022,05,18,03,37,2.20
2022,05,18,03,38,3.90
2022,05,18,03,39,3.00
2022,05,18,03,40,1.30
2022,05,18,03,41,0.60
2022,05,18,03,42,1.80
2022,05,18,03,43,4.40
2022,05,18,03,44,3.40
2022,05,18,03,45,3.40
2022,05,18,03,46,3.10
2022,05,18,03,47,1.90
2022,05,18,03,48,2.30
2022,05,18,03,49,3.00
2022,05,18,03,50,1.20
2022,05,18,03,51,0.20
2022,05,18,03,52,1.50
2022,05,18,03,53,1.40
2022,05,18,03,54,1.10
2022,05,18,03,55,2.30
2022,05,18,03,56,3.90
2022,05,18,03,57,2.40
2022,05,18,03,58,1.80
2022,05,18,03,59,4.30
2022,05,18,04,00,1.40
2022,05,18,04,01,4.50
2022,05,18,04,02,2.50
2022,05,18,04,03,4.50
2022,05,18,04,04,2.90
2022,05,18,04,05,2.10
2022,05,18,04,06,3.60
2022,05,18,04,07,5.60
2022,05,18,04,08,1.70
2022,05,18,04,09,2.50
2022,05,18,04,10,4.10
2022,05,18,04,11,4.70
2022,05,18,04,12,4.10
2022,05,18,04,13,4.10
2022,05,18,04,14,2.90
2022,05,18,04,15,3.00
2022,05,18,04,16,1.70
2022,05,18,04,17,1.20
2022,05,18,04,18,1.90
2022,05,18,04,19,3.40
2022,05,18,04,20,2.80
2022,05,18,04,21,1.30
2022,05,18,04,22,3.90
2022,05,18,04,23,2.50
2022,05,18,04,24,5.00
2022,05,18,04,25,3.50
2022,05,18,04,26,2.80
2022,05,18,04,27,1.00
2022,05,18,04,28,1.50
2022,05,18,04,29,1.80
2022,05,18,04,30,1.40
2022,05,18,04,31,3.50
2022,05,18,04,32,6.30
2022,05,18,04,33,1.30
2022,05,18,04,34,3.10
2022,05,18,04,35,3.10
2022,05,18,04,36,2.20
2022,05,18,04,37,2.20
2022,05,18,04,38,3.20
2022,05,18,04,39,2.10
2022,05,18,04,40,1.70
2022,05,18,04,41,4.10
2022,05,18,04,42,5.00
2022,05,18,04,43,2.30
2022,05,18,04,44,1.90
2022,05,18,04,45,3.00
2022,05,18,04,46,2.70
2022,05,18,04,47,2.70
2022,05,18,04,48,2.50
2022,05,18,04,49,2.20
2022,05,18,04,50,3.40
2022,05,18,04,51,6.00
2022,05,18,04,52,4.10
2022,05,18,04,53,5.50
2022,05,18,04,54,3.80
2022,05,18,04,55,2.00
2022,05,18,04,56,1.70
2022,05,18,04,57,3.70
2022,05,18,04,58,3.50
2022,05,18,04,59,3.10
2022,05,18,05,00,5.60
2022,05,18,05,01,6.80
2022,05,18,05,02,5.90
2022,05,18,05,03,3.90
2022,05,18,05,04,4.50
2022,05,18,05,05,2.50
2022,05,18,05,06,2.90
2022,05,18,05,07,2.10
2022,05,18,05,08,2.60
2022,05,18,05,09,2.30
2022,05,18,05,10,5.40
2022,05,18,05,11,3.90
2022,05,18,05,12,4.30
2022,05,18,05,13,5.60
2022,05,18,05,14,3.10
2022,05,18,05,15,4.20
2022,05,18,05,16,2.60
2022,05,18,05,17,4.00
2022,05,18,05,18,6.40
2022,05,18,05,19,3.50
2022,05,18,05,20,2.80
2022,05,18,05,21,3.90
2022,05,18,05,22,3.50
2022,05,18,05,23,4.90
2022,05,18,05,24,5.40
2022,05,18,05,25,4.30
2022,05,18,05,26,5.40
2022,05,18,05,27,4.90
2022,05,18,05,28,6.00
2022,05,18,05,29,4.30
2022,05,18,05,30,7.10
2022,05,18,05,31,6.40
2022,05,18,05,32,5.70
2022,05,18,05,33,9.60
2022,05,18,05,34,4.10
2022,05,18,05,35,3.70
2022,05,18,05,36,7.00
2022,05,18,05,37,5.60
2022,05,18,05,38,4.80
2022,05,18,05,39,4.30
2022,05,18,05,40,2.40
2022,05,18,05,41,3.80
2022,05,18,05,42,3.40
2022,05,18,05,43,3.00
2022,05,18,05,44,7.00
2022,05,18,05,45,5.00
2022,05,18,05,46,3.80
2022,05,18,05,47,4.50
2022,05,18,05,48,5.50
2022,05,18,05,49,4.40
2022,05,18,05,50,6.40
2022,05,18,05,51,5.00
2022,05,18,05,52,3.00
2022,05,18,05,53,2.30
2022,05,18,05,54,3.80
2022,05,18,05,55,4.20
2022,05,18,05,56,1.50
2022,05,18,05,57,4.40
2022,05,18,05,58,4.80
2022,05,18,05,59,4.80
2022,05,18,06,00,4.80
2022,05,18,06,01,3.40
2022,05,18,06,02,4.80
2022,05,18,06,03,3.00
2022,05,18,06,04,5.20
2022,05,18,06,05,5.80
2022,05,18,06,06,9.30
2022,05,18,06,07,8.00
2022,05,18,06,08,6.00
2022,05,18,06,09,4.70
2022,05,18,06,10,4.10
2022,05,18,06,11,4.70
2022,05,18,06,12,3.30
2022,05,18,06,13,2.80
2022,05,18,06,14,4.10
2022,05,18,06,15,2.90
2022,05,18,06,16,5.60
2022,05,18,06,17,5.20
2022,05,18,06,18,5.00
2022,05,18,06,19,6.70
2022,05,18,06,20,4.70
2022,05,18,06,21,3.30
2022,05,18,06,22,3.60
2022,05,18,06,23,4.30
2022,05,18,06,24,5.10
2022,05,18,06,25,3.50
2022,05,18,06,26,2.50
2022,05,18,06,27,4.40
2022,05,18,06,28,5.20
2022,05,18,06,29,2.20
2022,05,18,06,30,2.30
2022,05,18,06,31,2.60
2022,05,18,06,32,5.40
2022,05,18,06,33,3.10
2022,05,18,06,34,3.30
2022,05,18,06,35,2.70
2022,05,18,06,36,1.70
2022,05,18,06,37,3.60
2022,05,18,06,38,3.50
2022,05,18,06,39,5.90
2022,05,18,06,40,5.10
2022,05,18,06,41,6.70
2022,05,18,06,42,5.50
2022,05,18,06,43,6.00
2022,05,18,06,44,4.50
2022,05,18,06,45,4.00
2022,05,18,06,46,5.20
2022,05,18,06,47,4.30
2022,05,18,06,48,2.60
2022,05,18,06,49,2.80
2022,05,18,06,50,3.40
2022,05,18,06,51,1.80
2022,05,18,06,52,2.90
2022,05,18,06,53,1.50
2022,05,18,06,54,1.80
2022,05,18,06,55,2.80
2022,05,18,06,56,3.90
2022,05,18,06,57,1.20
2022,05,18,06,58,1.50
2022,05,18,06,59,1.40
2022,05,18,07,00,1.20
2022,05,18,07,01,1.70
2022,05,18,07,02,3.90
2022,05,18,07,03,2.80
2022,05,18,07,04,1.90
2022,05,18,07,05,1.10
2022,05,18,07,06,2.00
2022,05,18,07,07,1.80
2022,05,18,07,08,0.30
2022,05,18,07,09,2.50
2022,05,18,07,10,2.90
2022,05,18,07,11,2.70
2022,05,18,07,12,2.80
2022,05,18,07,13,1.30
2022,05,18,07,14,3.70
2022,05,18,07,15,2.50
2022,05,18,07,16,2.70
2022,05,18,07,17,2.20
2022,05,18,07,18,3.90
2022,05,18,07,19,2.30
2022,05,18,07,20,4.70
2022,05,18,07,21,4.50
2022,05,18,07,22,2.40
2022,05,18,07,23,3.20
2022,05,18,07,24,0.70
2022,05,18,07,25,0.20
2022,05,18,07,26,2.10
2022,05,18,07,27,3.10
2022,05,18,07,28,1.40
2022,05,18,07,29,3.90
2022,05,18,07,30,2.60
2022,05,18,07,31,2.10
2022,05,18,07,32,0.90
2022,05,18,07,33,2.60
2022,05,18,07,34,3.20
2022,05,18,07,35,3.40
2022,05,18,07,36,2.30
2022,05,18,07,37,2.50
2022,05,18,07,38,3.90
2022,05,18,07,39,1.20
2022,05,18,07,40,4.20
2022,05,18,07,41,2.70
2022,05,18,07,42,2.30
2022,05,18,07,43,2.00
2022,05,18,07,44,2.30
2022,05,18,07,45,2.60
2022,05,18,07,46,2.50
2022,05,18,07,47,2.70
2022,05,18,07,48,1.50
2022,05,18,07,49,2.60
2022,05,18,07,50,2.20
2022,05,18,07,51,2.90
2022,05,18,07,52,3.40
2022,05,18,07,53,1.90
2022,05,18,07,54,0.90
2022,05,18,07,55,2.30
2022,05,18,07,56,1.90
2022,05,18,07,57,3.80
2022,05,18,07,58,5.90
2022,05,18,07,59,6.10
2022,05,18,08,00,4.20
2022,05,18,08,01,4.70
2022,05,18,08,02,4.00
2022,05,18,08,03,2.60
2022,05,18,08,04,3.80
2022,05,18,08,05,3.40
2022,05,18,08,06,3.00
2022,05,18,08,07,3.10
2022,05,18,08,08,3.40
2022,05,18,08,09,3.70
2022,05,18,08,10,1.30
2022,05,18,08,11,4.30
2022,05,18,08,12,2.70
2022,05,18,08,13,2.80
2022,05,18,08,14,1.80
2022,05,18,08,15,1.50
2022,05,18,08,16,5.40
2022,05,18,08,17,6.90
2022,05,18,08,18,5.50
2022,05,18,08,19,4.10
2022,05,18,08,20,1.50
2022,05,18,08,21,0.60
2022,05,18,08,22,3.00
2022,05,18,08,23,2.50
2022,05,18,08,24,3.20
2022,05,18,08,25,2.60
2022,05,18,08,26,4.90
2022,05,18,08,27,3.30
2022,05,18,08,28,3.00
2022,05,18,08,29,3.50
2022,05,18,08,30,1.90
2022,05,18,08,31,3.80
2022,05,18,08,32,8.20
2022,05,18,08,33,6.70
2022,05,18,08,34,5.70
2022,05,18,08,35,5.00
2022,05,18,08,36,2.70
2022,05,18,08,37,2.60
2022,05,18,08,38,3.40
2022,05,18,08,39,3.10
2022,05,18,08,40,4.10
2022,05,18,08,41,2.60
2022,05,18,08,42,4.50
2022,05,18,08,43,3.50
2022,05,18,08,44,4.00
2022,05,18,08,45,5.60
2022,05,18,08,46,3.80
2022,05,18,08,47,3.00
2022,05,18,08,48,3.60
2022,05,18,08,49,2.10
2022,05,18,08,50,2.30
2022,05,18,08,51,5.40
2022,05,18,08,52,2.80
2022,05,18,08,53,6.90
2022,05,18,08,54,4.70
2022,05,18,08,55,5.40
2022,05,18,08,56,4.10
2022,05,18,08,57,4.80
2022,05,18,08,58,4.40
2022,05,18,08,59,9.30
2022,05,18,09,00,10.90
2022,05,18,09,01,8.50
2022,05,18,09,02,8.40
2022,05,18,09,03,7.60
2022,05,18,09,04,8.90
2022,05,18,09,05,2.90
2022,05,18,09,06,2.60
2022,05,18,09,07,3.90
2022,05,18,09,08,5.10
2022,05,18,09,09,3.50
2022,05,18,09,10,4.00
2022,05,18,09,11,3.30
2022,05,18,09,12,1.10
2022,05,18,09,13,1.40
2022,05,18,09,14,5.00
2022,05,18,09,15,4.30
2022,05,18,09,16,5.30
2022,05,18,09,17,8.70
2022,05,18,09,18,8.00
2022,05,18,09,19,5.60
2022,05,18,09,20,5.30
2022,05,18,09,21,13.20
2022,05,18,09,22,11.60
2022,05,18,09,23,11.40
2022,05,18,09,24,7.80
2022,05,18,09,25,6.80
2022,05,18,09,26,3.50
2022,05,18,09,27,5.80
2022,05,18,09,28,7.60
2022,05,18,09,29,7.50
2022,05,18,09,30,7.70
2022,05,18,09,31,3.10
2022,05,18,09,32,14.20
2022,05,18,09,33,13.10
2022,05,18,09,34,11.80
2022,05,18,09,35,9.70
2022,05,18,09,36,15.90
2022,05,18,09,37,9.30
2022,05,18,09,38,4.20
2022,05,18,09,39,7.80
2022,05,18,09,40,11.30
2022,05,18,09,41,14.70
2022,05,18,09,42,9.70
2022,05,18,09,43,10.10
2022,05,18,09,44,11.00
2022,05,18,09,45,7.70
2022,05,18,09,46,11.50
2022,05,18,09,47,6.60
2022,05,18,09,48,4.10
2022,05,18,09,49,4.70
2022,05,18,09,50,10.00
2022,05,18,09,51,9.70
2022,05,18,09,52,6.90
2022,05,18,09,53,10.40
2022,05,18,09,54,15.70
2022,05,18,09,55,14.70
2022,05,18,09,56,10.10
2022,05,18,09,57,12.60
2022,05,18,09,58,15.80
2022,05,18,09,59,19.30
2022,05,18,10,00,15.40
2022,05,18,10,01,15.30
2022,05,18,10,02,18.60
2022,05,18,10,03,21.30
2022,05,18,10,04,17.00
2022,05,18,10,05,15.00
2022,05,18,10,06,18.40
2022,05,18,10,07,13.60
2022,05,18,10,08,5.40
2022,05,18,10,09,10.80
2022,05,18,10,10,6.00
2022,05,18,10,11,7.20
2022,05,18,10,12,10.70
2022,05,18,10,13,10.30
2022,05,18,10,14,10.70
2022,05,18,10,15,14.20
2022,05,18,10,16,11.80
2022,05,18,10,17,19.00
2022,05,18,10,18,20.80
2022,05,18,10,19,21.50
2022,05,18,10,20,16.00
2022,05,18,10,21,8.30
2022,05,18,10,22,13.30
2022,05,18,10,23,18.10
2022,05,18,10,24,22.00
2022,05,18,10,25,22.60
2022,05,18,10,26,22.90
2022,05,18,10,27,14.40
2022,05,18,10,28,20.40
2022,05,18,10,29,12.90
2022,05,18,10,30,15.80
2022,05,18,10,31,17.70
2022,05,18,10,32,18.50
2022,05,18,10,33,18.70
2022,05,18,10,34,12.60
2022,05,18,10,35,18.50
2022,05,18,10,36,20.40
2022,05,18,10,37,15.80
2022,05,18,10,38,18.50
2022,05,18,10,39,16.70
2022,05,18,10,40,19.10
2022,05,18,10,41,16.80
2022,05,18,10,42,13.70
2022,05,18,10,43,14.50
2022,05,18,10,44,19.30
2022,05,18,10,45,10.10
2022,05,18,10,46,17.80
2022,05,18,10,47,12.60
2022,05,18,10,48,18.50
2022,05,18,10,49,10.10
2022,05,18,10,50,10.00
2022,05,18,10,51,11.20
2022,05,18,10,52,7.70
2022,05,18,10,53,13.50
2022,05,18,10,54,13.70
2022,05,18,10,55,11.10
2022,05,18,10,56,9.90
2022,05,18,10,57,18.40
2022,05,18,10,58,20.90
2022,05,18,10,59,24.00
2022,05,18,11,00,23.20
2022,05,18,11,01,15.60
2022,05,18,11,02,15.10
2022,05,18,11,03,19.60
2022,05,18,11,04,16.30
2022,05,18,11,05,16.50
2022,05,18,11,06,15.50
2022,05,18,11,07,21.60
2022,05,18,11,08,20.80
2022,05,18,11,09,16.20
2022,05,18,11,10,15.20
2022,05,18,11,11,13.40
2022,05,18,11,12,15.80
2022,05,18,11,13,15.40
2022,05,18,11,14,17.10
2022,05,18,11,15,15.80
2022,05,18,11,16,16.50
2022,05,18,11,17,11.30
2022,05,18,11,18,14.50
2022,05,18,11,19,19.90
2022,05,18,11,20,16.40
2022,05,18,11,21,18.70
2022,05,18,11,22,9.30
2022,05,18,11,23,11.30
2022,05,18,11,24,16.50
2022,05,18,11,25,7.90
2022,05,18,11,26,8.00
2022,05,18,11,27,4.90
2022,05,18,11,28,14.20
2022,05,18,11,29,24.20
2022,05,18,11,30,18.50
2022,05,18,11,31,22.30
2022,05,18,11,32,22.90
2022,05,18,11,33,22.70
2022,05,18,11,34,19.50
2022,05,18,11,35,20.90
2022,05,18,11,36,15.60
2022,05,18,11,37,3.90
2022,05,18,11,38,13.70
2022,05,18,11,39,19.20
2022,05,18,11,40,8.50
2022,05,18,11,41,17.90
2022,05,18,11,42,18.30
2022,05,18,11,43,15.90
2022,05,18,11,44,12.10
2022,05,18,11,45,18.20
2022,05,18,11,46,18.50
2022,05,18,11,47,15.10
2022,05,18,11,48,15.80
2022,05,18,11,49,22.10
2022,05,18,11,50,29.50
2022,05,18,11,51,22.50
2022,05,18,11,52,19.80
2022,05,18,11,53,32.70
2022,05,18,11,54,25.20
2022,05,18,11,55,24.00
2022,05,18,11,56,18.00
2022,05,18,11,57,10.10
2022,05,18,11,58,19.60
2022,05,18,11,59,10.50
2022,05,18,12,00,10.30
2022,05,18,12,01,9.90
2022,05,18,12,02,12.40
2022,05,18,12,03,19.60
2022,05,18,12,04,19.90
2022,05,18,12,05,21.60
2022,05,18,12,06,23.50
2022,05,18,12,07,21.80
2022,05,18,12,08,15.80
2022,05,18,12,09,8.50
2022,05,18,12,10,13.50
2022,05,18,12,11,18.20
2022,05,18,12,12,22.20
2022,05,18,12,13,20.90
2022,05,18,12,14,20.60
2022,05,18,12,15,29.90
2022,05,18,12,16,27.00
2022,05,18,12,17,19.30
2022,05,18,12,18,21.60
2022,05,18,12,19,17.20
2022,05,18,12,20,15.60
2022,05,18,12,21,19.30
2022,05,18,12,22,18.30
2022,05,18,12,23,14.70
2022,05,18,12,24,9.40
2022,05,18,12,25,18.20
2022,05,18,12,26,23.80
2022,05,18,12,27,14.30
2022,05,18,12,28,16.00
2022,05,18,12,29,18.00
2022,05,18,12,30,24.10
2022,05,18,12,31,29.10
2022,05,18,12,32,18.90
2022,05,18,12,33,20.50
2022,05,18,12,34,21.70
2022,05,18,12,35,21.60
2022,05,18,12,36,20.20
2022,05,18,12,37,17.70
2022,05,18,12,38,27.00
2022,05,18,12,39,19.60
2022,05,18,12,40,17.30
2022,05,18,12,41,11.90
2022,05,18,12,42,10.60
2022,05,18,12,43,16.30
2022,05,18,12,44,10.70
2022,05,18,12,45,12.90
2022,05,18,12,46,20.10
2022,05,18,12,47,14.10
2022,05,18,12,48,17.40
2022,05,18,12,49,16.00
2022,05,18,12,50,15.90
2022,05,18,12,51,17.60
2022,05,18,12,52,13.40
2022,05,18,12,53,14.00
2022,05,18,12,54,10.50
2022,05,18,12,55,20.40
2022,05,18,12,56,21.10
2022,05,18,12,57,19.50
2022,05,18,12,58,16.50
2022,05,18,12,59,20.60
2022,05,18,13,00,16.50
2022,05,18,13,01,14.20
2022,05,18,13,02,13.80
2022,05,18,13,03,11.70
2022,05,18,13,04,22.50
2022,05,18,13,05,13.30
2022,05,18,13,06,7.80
2022,05,18,13,07,17.50
2022,05,18,13,08,22.50
2022,05,18,13,09,23.40
2022,05,18,13,10,20.30
2022,05,18,13,11,21.60
2022,05,18,13,12,23.70
2022,05,18,13,13,23.30
2022,05,18,13,14,25.10
2022,05,18,13,15,22.70
2022,05,18,13,16,17.90
2022,05,18,13,17,19.70
2022,05,18,13,18,25.30
2022,05,18,13,19,23.50
2022,05,18,13,20,13.50
2022,05,18,13,21,23.60
2022,05,18,13,22,20.20
2022,05,18,13,23,14.10
2022,05,18,13,24,11.70
2022,05,18,13,25,18.40
2022,05,18,13,26,19.60
2022,05,18,13,27,24.60
2022,05,18,13,28,20.30
2022,05,18,13,29,20.60
2022,05,18,13,30,15.50
2022,05,18,13,31,14.40
2022,05,18,13,32,16.10
2022,05,18,13,33,30.60
2022,05,18,13,34,28.00
2022,05,18,13,35,21.60
2022,05,18,13,36,16.90
2022,05,18,13,37,19.00
2022,05,18,13,38,18.00
2022,05,18,13,39,25.60
2022,05,18,13,40,24.10
2022,05,18,13,41,26.70
2022,05,18,13,42,27.20
2022,05,18,13,43,21.00
2022,05,18,13,44,29.00
2022,05,18,13,45,11.80
2022,05,18,13,46,16.10
2022,05,18,13,47,24.70
2022,05,18,13,48,22.20
2022,05,18,13,49,21.90
2022,05,18,13,50,20.40
2022,05,18,13,51,17.50
2022,05,18,13,52,8.40
2022,05,18,13,53,16.40
2022,05,18,13,54,23.80
2022,05,18,13,55,14.00
2022,05,18,13,56,18.10
2022,05,18,13,57,14.00
2022,05,18,13,58,22.80
2022,05,18,13,59,18.00
2022,05,18,14,00,12.10
2022,05,18,14,01,16.00
2022,05,18,14,02,24.20
2022,05,18,14,03,22.90
2022,05,18,14,04,12.60
2022,05,18,14,05,20.90
2022,05,18,14,06,19.50
2022,05,18,14,07,16.70
2022,05,18,14,08,10.20
2022,05,18,14,09,14.40
2022,05,18,14,10,19.20
2022,05,18,14,11,14.10
2022,05,18,14,12,16.10
2022,05,18,14,13,15.00
2022,05,18,14,14,13.00
2022,05,18,14,15,14.60
2022,05,18,14,16,17.90
2022,05,18,14,17,18.40
2022,05,18,14,18,17.70
2022,05,18,14,19,16.80
2022,05,18,14,20,11.50
2022,05,18,14,21,13.70
2022,05,18,14,22,16.20
2022,05,18,14,23,13.40
2022,05,18,14,24,10.10
2022,05,18,14,25,16.50
2022,05,18,14,26,26.20
2022,05,18,14,27,17.30
2022,05,18,14,28,16.90
2022,05,18,14,29,16.70
2022,05,18,14,30,9.60
2022,05,18,14,31,8.60
2022,05,18,14,32,15.00
2022,05,18,14,33,16.60
2022,05,18,14,34,12.70
2022,05,18,14,35,10.80
2022,05,18,14,36,8.10
2022,05,18,14,37,12.20
2022,05,18,14,38,12.10
2022,05,18,14,39,7.20
2022,05,18,14,40,8.70
2022,05,18,14,41,6.50
2022,05,18,14,42,3.40
2022,05,18,14,43,8.80
2022,05,18,14,44,7.70
2022,05,18,14,45,11.40
2022,05,18,14,46,15.50
2022,05,18,14,47,16.90
2022,05,18,14,48,11.70
2022,05,18,14,49,17.00
2022,05,18,14,50,17.80
2022,05,18,14,51,6.30
2022,05,18,14,52,14.20
2022,05,18,14,53,24.10
2022,05,18,14,54,8.70
2022,05,18,14,55,6.90
2022,05,18,14,56,16.80
2022,05,18,14,57,15.10
2022,05,18,14,58,8.10
2022,05,18,14,59,10.80
2022,05,18,15,00,10.90
2022,05,18,15,01,10.00
2022,05,18,15,02,3.20
2022,05,18,15,03,4.40
2022,05,18,15,04,8.90
2022,05,18,15,05,15.00
2022,05,18,15,06,12.10
2022,05,18,15,07,11.60
2022,05,18,15,08,5.50
2022,05,18,15,09,9.00
2022,05,18,15,10,17.30
2022,05,18,15,11,10.50
2022,05,18,15,12,11.30
2022,05,18,15,13,14.30
2022,05,18,15,14,11.60
2022,05,18,15,15,9.20
2022,05,18,15,16,9.40
2022,05,18,15,17,11.60
2022,05,18,15,18,8.10
2022,05,18,15,19,6.90
2022,05,18,15,20,7.30
2022,05,18,15,21,12.80
2022,05,18,15,22,18.50
2022,05,18,15,23,16.90
2022,05,18,15,24,18.40
2022,05,18,15,25,15.50
2022,05,18,15,26,17.50
2022,05,18,15,27,14.70
2022,05,18,15,28,11.70
2022,05,18,15,29,8.00
2022,05,18,15,30,9.00
2022,05,18,15,31,11.00
2022,05,18,15,32,23.30
2022,05,18,15,33,21.50
2022,05,18,15,34,13.00
2022,05,18,15,35,7.70
2022,05,18,15,36,10.70
2022,05,18,15,37,11.50
2022,05,18,15,38,11.80
2022,05,18,15,39,10.10
2022,05,18,15,40,6.80
2022,05,18,15,41,4.40
2022,05,18,15,42,11.30
2022,05,18,15,43,13.00
2022,05,18,15,44,10.60
2022,05,18,15,45,12.60
2022,05,18,15,46,18.60
2022,05,18,15,47,21.90
2022,05,18,15,48,12.60
2022,05,18,15,49,10.10
2022,05,18,15,50,10.10
2022,05,18,15,51,6.30
2022,05,18,15,52,14.40
2022,05,18,15,53,17.90
2022,05,18,15,54,15.10
2022,05,18,15,55,8.50
2022,05,18,15,56,9.40
2022,05,18,15,57,9.20
2022,05,18,15,58,15.50
2022,05,18,15,59,12.30
2022,05,18,16,00,14.00
2022,05,18,16,01,11.20
2022,05,18,16,02,12.00
2022,05,18,16,03,12.70
2022,05,18,16,04,6.70
2022,05,18,16,05,8.00
2022,05,18,16,06,6.80
2022,05,18,16,07,5.10
2022,05,18,16,08,5.60
2022,05,18,16,09,8.20
2022,05,18,16,10,3.10
2022,05,18,16,11,7.70
2022,05,18,16,12,5.10
2022,05,18,16,13,6.80
2022,05,18,16,14,3.90
2022,05,18,16,15,2.60
2022,05,18,16,16,2.40
2022,05,18,16,17,2.20
2022,05,18,16,18,4.90
2022,05,18,16,19,3.90
2022,05,18,16,20,5.50
2022,05,18,16,21,6.10
2022,05,18,16,22,8.30
2022,05,18,16,23,6.00
2022,05,18,16,24,5.40
2022,05,18,16,25,6.00
2022,05,18,16,26,8.80
2022,05,18,16,27,11.70
2022,05,18,16,28,6.50
2022,05,18,16,29,7.90
2022,05,18,16,30,15.40
2022,05,18,16,31,13.10
2022,05,18,16,32,9.30
2022,05,18,16,33,3.90
2022,05,18,16,34,3.40
2022,05,18,16,35,5.10
2022,05,18,16,36,5.60
2022,05,18,16,37,4.30
2022,05,18,16,38,1.90
2022,05,18,16,39,7.90
2022,05,18,16,40,8.60
2022,05,18,16,41,7.70
2022,05,18,16,42,4.40
2022,05,18,16,43,14.70
2022,05,18,16,44,12.50
2022,05,18,16,45,16.10
2022,05,18,16,46,20.60
2022,05,18,16,47,20.10
2022,05,18,16,48,15.40
2022,05,18,16,49,13.20
2022,05,18,16,50,10.00
2022,05,18,16,51,13.70
2022,05,18,16,52,13.80
2022,05,18,16,53,21.30
2022,05,18,16,54,19.00
2022,05,18,16,55,14.00
2022,05,18,16,56,17.30
2022,05,18,16,57,15.40
2022,05,18,16,58,19.10
2022,05,18,16,59,25.30
2022,05,18,17,00,13.30
2022,05,18,17,01,24.00
2022,05,18,17,02,13.80
2022,05,18,17,03,22.00
2022,05,18,17,04,17.10
2022,05,18,17,05,17.10
2022,05,18,17,06,17.50
2022,05,18,17,07,15.80
2022,05,18,17,08,13.80
2022,05,18,17,09,8.60
2022,05,18,17,10,10.80
2022,05,18,17,11,10.60
2022,05,18,17,12,18.50
2022,05,18,17,13,12.40
2022,05,18,17,14,13.70
2022,05,18,17,15,10.10
2022,05,18,17,16,9.20
2022,05,18,17,17,9.90
2022,05,18,17,18,13.90
2022,05,18,17,19,19.30
2022,05,18,17,20,20.80
2022,05,18,17,21,23.70
2022,05,18,17,22,19.60
2022,05,18,17,23,17.40
2022,05,18,17,24,12.30
2022,05,18,17,25,17.00
2022,05,18,17,26,17.50
2022,05,18,17,27,23.10
2022,05,18,17,28,15.90
2022,05,18,17,29,18.70
2022,05,18,17,30,19.10
2022,05,18,17,31,15.20
2022,05,18,17,32,15.80
2022,05,18,17,33,15.50
2022,05,18,17,34,18.90
2022,05,18,17,35,14.20
2022,05,18,17,36,16.20
2022,05,18,17,37,19.90
2022,05,18,17,38,13.80
2022,05,18,17,39,13.80
2022,05,18,17,40,16.70
2022,05,18,17,41,15.00
2022,05,18,17,42,23.10
2022,05,18,17,43,25.60
2022,05,18,17,44,25.80
2022,05,18,17,45,21.40
2022,05,18,17,46,20.00
2022,05,18,17,47,16.60
2022,05,18,17,48,19.10